Find Starlink 35414

NORAD ID: 65798 Int'l Des: 2025-218 Owner: SPXS Country: US Constellation: starlink operational
LEOCIRCULARRETROGRADESSO

当前视图

正在加载3D地球...

About Starlink 35414

Starlink 35414 (NORAD 65798) is a starlink constellation satellite (v2 mini) launched Sep 26, 2025 by SPXS of US. It operates in LEO, CIRCULAR, RETROGRADE, SSO orbit with a mass of 575.00 kg.

关于 Starlink 35414

正在加载描述...

即将过境

Passes for default location (London). Set your location on the main map for personalized predictions.

高度历史

Loading altitude history...

两行轨道根数

1 65798U 25218H 26160.56496604 .00002671 00000-0 18901-3 0 9996
2 65798 97.3836 22.7465 0002203 86.6374 273.5105 15.05659120 38794
Epoch: Jun 9, 2026 • Age: 16 hours

当前状态

高度 551.4 km
速度 7.59 km/s
星下点 19.65°N, 38.21°E
发射日期 Sep 26, 2025
运行时间 0.7 years
类型 internet

技术详情

分类 Payload
质量 575.00 kg
干质量 530.00 kg
总质量 575.00 kg
长度 0.30 m
直径 4.10 m
跨度 29.00 m
形状 Box + pan
制造商 SPXS
平台类型 Starlink V2MO
阶段状态 In Orbit
所有者/国家 SPXS/US

Most Searched